,,,PA_Meas_PMT16A,,PR_Meas_QMR101_102,,RH_Meas_QMH101,,SR_Meas_QMS101,,TA_Meas_QMH101,,GenWind,,GenWind,
date,time,status,PA,status,PR,status,RH,status,SR,status,TA,status,DirAvg,status,SpdAvg,
2010-05-30, 00:00:04,VALID,1002.13,VALID,0,VALID,94.1877,VALID,0,VALID,23.7597,VALID,23,VALID,0,
2010-05-30, 00:01:04,VALID,1002.1,VALID,0,VALID,94.1724,VALID,0,VALID,23.7793,VALID,272,VALID,0.359375,
2010-05-30, 00:02:04,VALID,1002.08,VALID,0,VALID,94.18,VALID,0,VALID,23.8378,VALID,272,VALID,0.445703,
2010-05-30, 00:03:04,VALID,1002.1,VALID,0,VALID,94.1953,VALID,0,VALID,23.8573,VALID,232,VALID,0.570703,
2010-05-30, 00:04:04,VALID,1002.09,VALID,0,VALID,94.1724,VALID,0,VALID,23.8555,VALID,219,VALID,0.551172,
2010-05-30, 00:05:04,VALID,1002.1,VALID,0,VALID,94.1724,VALID,0,VALID,23.8573,VALID,166,VALID,0.954297,
2010-05-30, 00:06:04,VALID,1002.09,VALID,0,VALID,94.1953,VALID,0,VALID,23.9336,VALID,157,VALID,1.17813,
2010-05-30, 00:07:04,VALID,1002.06,VALID,0,VALID,94.1953,VALID,0,VALID,23.9726,VALID,155,VALID,0.789063,
2010-05-30, 00:08:04,VALID,1002.07,VALID,0,VALID,94.1724,VALID,0,VALID,23.9939,VALID,149,VALID,0.589453,
2010-05-30, 00:09:04,VALID,1002.07,VALID,0,VALID,94.18,VALID,0,VALID,23.9939,VALID,149,VALID,0.520703,
2010-05-30, 00:10:04,VALID,1002.03,VALID,0,VALID,94.1648,VALID,0,VALID,23.9336,VALID,149,VALID,0.526953,
2010-05-30, 00:11:04,VALID,1002.05,VALID,0,VALID,94.1648,VALID,0,VALID,23.9336,VALID,144,VALID,0.269922,
2010-05-30, 00:12:04,VALID,1002.01,VALID,0,VALID,94.1495,VALID,0,VALID,23.8963,VALID,144,VALID,0.280469,
2010-05-30, 00:13:04,VALID,1001.98,VALID,0,VALID,94.1571,VALID,0,VALID,23.875,VALID,144,VALID,0,
2010-05-30, 00:14:04,VALID,1001.99,VALID,0,VALID,94.1648,VALID,0,VALID,23.8573,VALID,144,VALID,0,
2010-05-30, 00:15:04,VALID,1002,VALID,0,VALID,94.1648,VALID,0,VALID,23.8378,VALID,144,VALID,0,
2010-05-30, 00:16:04,VALID,1001.98,VALID,0,VALID,94.1419,VALID,0,VALID,23.7988,VALID,144,VALID,0,
2010-05-30, 00:17:04,VALID,1001.99,VALID,0,VALID,94.1419,VALID,0,VALID,23.7579,VALID,144,VALID,0,
2010-05-30, 00:18:04,VALID,1001.99,VALID,0,VALID,94.1648,VALID,0,VALID,23.7597,VALID,144,VALID,0,
2010-05-30, 00:19:04,VALID,1001.95,VALID,0,VALID,94.1648,VALID,0,VALID,23.7384,VALID,144,VALID,0,
2010-05-30, 00:20:04,VALID,1001.93,VALID,0,VALID,94.1495,VALID,0,VALID,23.7793,VALID,144,VALID,0.371875,
2010-05-30, 00:21:04,VALID,1001.92,VALID,0,VALID,94.1724,VALID,0,VALID,23.7775,VALID,144,VALID,0.470313,
2010-05-30, 00:22:04,VALID,1001.9,VALID,0,VALID,94.18,VALID,0,VALID,23.8378,VALID,144,VALID,0.349609,
2010-05-30, 00:23:04,VALID,1001.89,VALID,0,VALID,94.1648,VALID,0,VALID,23.8555,VALID,144,VALID,0.430078,
2010-05-30, 00:24:04,VALID,1001.89,VALID,0,VALID,94.18,VALID,0,VALID,23.8555,VALID,144,VALID,0.390234,
2010-05-30, 00:25:04,VALID,1001.86,VALID,0,VALID,94.18,VALID,0,VALID,23.8573,VALID,144,VALID,0.432031,
2010-05-30, 00:26:04,VALID,1001.87,VALID,0,VALID,94.1571,VALID,0,VALID,23.797,VALID,144,VALID,0.582812,
2010-05-30, 00:27:04,VALID,1001.9,VALID,0,VALID,94.1419,VALID,0,VALID,23.7775,VALID,112,VALID,0.875,
2010-05-30, 00:28:04,VALID,1001.86,VALID,0,VALID,94.1571,VALID,0,VALID,23.7384,VALID,105,VALID,0.973437,
2010-05-30, 00:29:04,VALID,1001.83,VALID,0,VALID,94.1648,VALID,0,VALID,23.7402,VALID,96,VALID,1.11914,
2010-05-30, 00:30:04,VALID,1001.85,VALID,0,VALID,94.1571,VALID,0,VALID,23.6994,VALID,95,VALID,1.20195,
2010-05-30, 00:31:04,VALID,1001.82,VALID,0,VALID,94.1724,VALID,0,VALID,23.7597,VALID,97,VALID,1.12656,
2010-05-30, 00:32:04,VALID,1001.84,VALID,0,VALID,94.1495,VALID,0,VALID,23.7402,VALID,96,VALID,1.02773,
2010-05-30, 00:33:04,VALID,1001.84,VALID,0,VALID,94.1724,VALID,0,VALID,23.7597,VALID,96,VALID,1.17734,
2010-05-30, 00:34:04,VALID,1001.86,VALID,0,VALID,94.1419,VALID,0,VALID,23.7189,VALID,95,VALID,0.953906,
2010-05-30, 00:35:04,VALID,1001.85,VALID,0,VALID,94.1343,VALID,0,VALID,23.7402,VALID,95,VALID,0.694922,
2010-05-30, 00:36:04,VALID,1001.85,VALID,0,VALID,94.1495,VALID,0,VALID,23.6994,VALID,95,VALID,0.576953,
2010-05-30, 00:37:04,VALID,1001.82,VALID,0,VALID,94.1266,VALID,0,VALID,23.6994,VALID,95,VALID,0.53125,
2010-05-30, 00:38:04,VALID,1001.83,VALID,0,VALID,94.1419,VALID,0.112286,VALID,23.6994,VALID,95,VALID,0.484375,
2010-05-30, 00:39:04,VALID,1001.79,VALID,0,VALID,94.1266,VALID,0,VALID,23.7207,VALID,95,VALID,0.309766,
2010-05-30, 00:40:04,VALID,1001.73,VALID,0,VALID,94.1114,VALID,0,VALID,23.7207,VALID,107,VALID,0.384766,
2010-05-30, 00:41:04,VALID,1001.69,VALID,0,VALID,94.1114,VALID,0,VALID,23.6994,VALID,107,VALID,0.154297,
2010-05-30, 00:42:04,VALID,1001.67,VALID,0,VALID,94.1114,VALID,0,VALID,23.6799,VALID,107,VALID,0,
2010-05-30, 00:43:04,VALID,1001.67,VALID,0,VALID,94.1114,VALID,0,VALID,23.6604,VALID,107,VALID,0,
2010-05-30, 00:44:04,VALID,1001.62,VALID,0,VALID,94.0961,VALID,0,VALID,23.6409,VALID,107,VALID,0,
2010-05-30, 00:45:04,VALID,1001.63,VALID,0,VALID,94.0961,VALID,0,VALID,23.6214,VALID,107,VALID,0,
2010-05-30, 00:46:04,VALID,1001.61,VALID,0,VALID,94.0961,VALID,0,VALID,23.6214,VALID,106,VALID,0,
2010-05-30, 00:47:04,VALID,1001.6,VALID,0,VALID,94.0656,VALID,0,VALID,23.5433,VALID,18,VALID,0.833594,
2010-05-30, 00:48:04,VALID,1001.56,VALID,0,VALID,94.0808,VALID,0,VALID,23.4848,VALID,18,VALID,0.63125,
2010-05-30, 00:49:04,VALID,1001.56,VALID,0,VALID,94.0732,VALID,0,VALID,23.4866,VALID,18,VALID,0.504687,
2010-05-30, 00:50:04,VALID,1001.6,VALID,0,VALID,94.0808,VALID,0,VALID,23.4653,VALID,18,VALID,0.227734,
2010-05-30, 00:51:04,VALID,1001.57,VALID,0,VALID,94.0808,VALID,0,VALID,23.4458,VALID,18,VALID,0,
2010-05-30, 00:52:04,VALID,1001.58,VALID,0,VALID,94.0961,VALID,0,VALID,23.4458,VALID,18,VALID,0,
2010-05-30, 00:53:04,VALID,1001.57,VALID,0,VALID,94.0732,VALID,0,VALID,23.4263,VALID,18,VALID,0,
2010-05-30, 00:54:04,VALID,1001.57,VALID,0,VALID,94.0961,VALID,0,VALID,23.4067,VALID,18,VALID,0.337109,
2010-05-30, 00:55:04,VALID,1001.59,VALID,0,VALID,94.1037,VALID,0,VALID,23.4263,VALID,29,VALID,0.558594,
2010-05-30, 00:56:04,VALID,1001.59,VALID,0,VALID,94.119,VALID,0,VALID,23.4866,VALID,101,VALID,0.664844,
2010-05-30, 00:57:04,VALID,1001.54,VALID,0,VALID,94.119,VALID,0,VALID,23.5043,VALID,101,VALID,0.928516,
2010-05-30, 00:58:04,VALID,1001.55,VALID,0,VALID,94.1266,VALID,0,VALID,23.5238,VALID,103,VALID,0.847656,
2010-05-30, 00:59:04,VALID,1001.51,VALID,0,VALID,94.1343,VALID,0,VALID,23.5628,VALID,104,VALID,0.972266,
2010-05-30, 01:00:04,VALID,1001.49,VALID,0,VALID,94.1495,VALID,0,VALID,23.6019,VALID,104,VALID,1.15781,
2010-05-30, 01:01:04,VALID,1001.5,VALID,0,VALID,94.1266,VALID,0,VALID,23.6214,VALID,104,VALID,1.06133,
2010-05-30, 01:02:04,VALID,1001.48,VALID,0,VALID,94.1266,VALID,0,VALID,23.6214,VALID,95,VALID,0.928516,
2010-05-30, 01:03:04,VALID,1001.49,VALID,0,VALID,94.119,VALID,0,VALID,23.6214,VALID,93,VALID,0.864844,
2010-05-30, 01:04:04,VALID,1001.46,VALID,0,VALID,94.0961,VALID,0,VALID,23.6019,VALID,80,VALID,0.783203,
2010-05-30, 01:05:04,VALID,1001.42,VALID,0,VALID,94.1037,VALID,0,VALID,23.6019,VALID,91,VALID,0.600391,
2010-05-30, 01:06:04,VALID,1001.43,VALID,0,VALID,94.0732,VALID,0,VALID,23.6036,VALID,65,VALID,0.671875,
2010-05-30, 01:07:04,VALID,1001.4,VALID,0,VALID,94.058,VALID,0,VALID,23.5628,VALID,35,VALID,0.611719,
2010-05-30, 01:08:04,VALID,1001.37,VALID,0,VALID,94.0427,VALID,0,VALID,23.5238,VALID,358,VALID,0.93125,
2010-05-30, 01:09:04,VALID,1001.35,VALID,0,VALID,94.0427,VALID,0,VALID,23.5061,VALID,351,VALID,1.10898,
2010-05-30, 01:10:04,VALID,1001.31,VALID,0,VALID,94.0503,VALID,0,VALID,23.4866,VALID,354,VALID,0.792578,
2010-05-30, 01:11:04,VALID,1001.3,VALID,0,VALID,94.0198,VALID,0,VALID,23.4671,VALID,357,VALID,0.923437,
2010-05-30, 01:12:04,VALID,1001.28,VALID,0,VALID,94.0198,VALID,0,VALID,23.4866,VALID,357,VALID,0.623828,
2010-05-30, 01:13:04,VALID,1001.26,VALID,0,VALID,94.0198,VALID,0,VALID,23.4671,VALID,357,VALID,0.630469,
2010-05-30, 01:14:04,VALID,1001.2,VALID,0,VALID,94.0656,VALID,0,VALID,23.4458,VALID,357,VALID,0.436328,
2010-05-30, 01:15:04,VALID,1001.2,VALID,0,VALID,94.0274,VALID,0,VALID,23.4458,VALID,344,VALID,0.473437,
2010-05-30, 01:16:04,VALID,1001.14,VALID,0,VALID,94.0656,VALID,0,VALID,23.4458,VALID,343,VALID,0.188672,
2010-05-30, 01:17:04,VALID,1001.09,VALID,0,VALID,94.0503,VALID,0,VALID,23.4671,VALID,343,VALID,0,
2010-05-30, 01:18:04,VALID,1001.09,VALID,0,VALID,94.0427,VALID,0,VALID,23.4067,VALID,343,VALID,0,
2010-05-30, 01:19:04,VALID,1001.08,VALID,0,VALID,94.0503,VALID,0,VALID,23.4067,VALID,343,VALID,0.117578,
2010-05-30, 01:20:04,VALID,1001.08,VALID,0,VALID,94.0656,VALID,0,VALID,23.4263,VALID,343,VALID,0.428516,
2010-05-30, 01:21:04,VALID,1001.07,VALID,0,VALID,94.0503,VALID,0,VALID,23.428,VALID,343,VALID,0.470703,
2010-05-30, 01:22:04,VALID,1001.02,VALID,0,VALID,94.0274,VALID,0,VALID,23.4085,VALID,13,VALID,0.575,
2010-05-30, 01:23:04,VALID,1001.01,VALID,0,VALID,94.0198,VALID,0,VALID,23.389,VALID,25,VALID,0.604297,
2010-05-30, 01:24:04,VALID,1001.01,VALID,0,VALID,94.0503,VALID,0,VALID,23.3695,VALID,25,VALID,0.421875,
2010-05-30, 01:25:04,VALID,1000.98,VALID,0,VALID,94.0351,VALID,0,VALID,23.35,VALID,25,VALID,0.198047,
2010-05-30, 01:26:04,VALID,1000.95,VALID,0,VALID,94.0351,VALID,0,VALID,23.3305,VALID,25,VALID,0,
2010-05-30, 01:27:04,VALID,1000.93,VALID,0,VALID,94.0198,VALID,0,VALID,23.35,VALID,25,VALID,0,
2010-05-30, 01:28:04,VALID,1000.92,VALID,0,VALID,94.0503,VALID,0,VALID,23.389,VALID,25,VALID,0,
2010-05-30, 01:29:04,VALID,1000.89,VALID,0,VALID,94.058,VALID,0,VALID,23.3872,VALID,233,VALID,0,
2010-05-30, 01:30:04,VALID,1000.86,VALID,0,VALID,94.0656,VALID,0,VALID,23.4263,VALID,218,VALID,0,
2010-05-30, 01:31:04,VALID,1000.86,VALID,0,VALID,94.0656,VALID,0,VALID,23.4671,VALID,218,VALID,0,
2010-05-30, 01:32:04,VALID,1000.83,VALID,0,VALID,94.0732,VALID,0,VALID,23.4475,VALID,218,VALID,0,
2010-05-30, 01:33:04,VALID,1000.82,VALID,0,VALID,94.0503,VALID,0,VALID,23.4671,VALID,218,VALID,0,
2010-05-30, 01:34:04,VALID,1000.78,VALID,0,VALID,94.0656,VALID,0,VALID,23.4475,VALID,218,VALID,0,
2010-05-30, 01:35:04,VALID,1000.81,VALID,0,VALID,94.0656,VALID,0,VALID,23.4475,VALID,218,VALID,0,
2010-05-30, 01:36:04,VALID,1000.8,VALID,0,VALID,94.0656,VALID,0,VALID,23.4067,VALID,218,VALID,0,
2010-05-30, 01:37:04,VALID,1000.75,VALID,0,VALID,94.0427,VALID,0,VALID,23.3695,VALID,218,VALID,0,
2010-05-30, 01:38:04,VALID,1000.71,VALID,0,VALID,94.0351,VALID,0,VALID,23.2915,VALID,218,VALID,0,
2010-05-30, 01:39:04,VALID,1000.72,VALID,0,VALID,94.0274,VALID,0,VALID,23.2524,VALID,218,VALID,0,
2010-05-30, 01:40:04,VALID,1000.69,VALID,0,VALID,94.0427,VALID,0,VALID,23.2329,VALID,218,VALID,0,
2010-05-30, 01:41:04,VALID,1000.68,VALID,0,VALID,94.0427,VALID,0,VALID,23.2507,VALID,218,VALID,0,
2010-05-30, 01:42:04,VALID,1000.68,VALID,0,VALID,94.0351,VALID,0,VALID,23.1921,VALID,218,VALID,0,
2010-05-30, 01:43:04,VALID,1000.66,VALID,0,VALID,94.058,VALID,0,VALID,23.2329,VALID,218,VALID,0,
2010-05-30, 01:44:04,VALID,1000.62,VALID,0,VALID,94.058,VALID,0,VALID,23.2719,VALID,218,VALID,0,
2010-05-30, 01:45:04,VALID,1000.59,VALID,0,VALID,94.058,VALID,0,VALID,23.2897,VALID,218,VALID,0,
2010-05-30, 01:46:04,VALID,1000.55,VALID,0,VALID,94.0732,VALID,0,VALID,23.3092,VALID,218,VALID,0,
2010-05-30, 01:47:04,VALID,1000.54,VALID,0,VALID,94.0732,VALID,0,VALID,23.3305,VALID,218,VALID,0,
2010-05-30, 01:48:04,VALID,1000.52,VALID,0,VALID,94.0732,VALID,0,VALID,23.311,VALID,280,VALID,0,
2010-05-30, 01:49:04,VALID,1000.53,VALID,0,VALID,94.0808,VALID,0,VALID,23.2312,VALID,291,VALID,0,
2010-05-30, 01:50:04,VALID,1000.55,VALID,0,VALID,94.0885,VALID,0,VALID,23.2719,VALID,312,VALID,0,
2010-05-30, 01:51:04,VALID,1000.52,VALID,0,VALID,94.0885,VALID,0,VALID,23.2719,VALID,321,VALID,0,
2010-05-30, 01:52:04,VALID,1000.52,VALID,0,VALID,94.0961,VALID,0,VALID,23.2524,VALID,344,VALID,0.805859,
2010-05-30, 01:53:04,VALID,1000.51,VALID,0,VALID,94.0808,VALID,0,VALID,23.1744,VALID,11,VALID,1.09844,
2010-05-30, 01:54:04,VALID,1000.53,VALID,0,VALID,94.058,VALID,0,VALID,23.1141,VALID,21,VALID,1.33086,
2010-05-30, 01:55:04,VALID,1000.47,VALID,0,VALID,94.0656,VALID,0,VALID,23.0573,VALID,25,VALID,1.32266,
2010-05-30, 01:56:04,VALID,1000.44,VALID,0,VALID,94.0503,VALID,0,VALID,23.0183,VALID,35,VALID,1.54141,
2010-05-30, 01:57:04,VALID,1000.43,VALID,0,VALID,94.0808,VALID,0,VALID,23.0183,VALID,42,VALID,1.31562,
2010-05-30, 01:58:04,VALID,1000.41,VALID,0,VALID,94.1037,VALID,0,VALID,22.9971,VALID,53,VALID,1.20039,
2010-05-30, 01:59:04,VALID,1000.39,VALID,0,VALID,94.1266,VALID,0,VALID,23.0769,VALID,54,VALID,0.963672,
2010-05-30, 02:00:04,VALID,1000.38,VALID,0,VALID,94.1343,VALID,0,VALID,23.0573,VALID,54,VALID,0.985937,
2010-05-30, 02:01:04,VALID,1000.4,VALID,0,VALID,94.1343,VALID,0,VALID,23.0361,VALID,54,VALID,0.44375,
2010-05-30, 02:02:04,VALID,1000.36,VALID,0,VALID,94.1343,VALID,0,VALID,23.0183,VALID,54,VALID,0.213672,
2010-05-30, 02:03:04,VALID,1000.36,VALID,0,VALID,94.1114,VALID,0,VALID,22.9598,VALID,54,VALID,0,
2010-05-30, 02:04:04,VALID,1000.34,VALID,0,VALID,94.1495,VALID,0,VALID,22.9776,VALID,54,VALID,0,
2010-05-30, 02:05:04,VALID,1000.35,VALID,0,VALID,94.1495,VALID,0,VALID,23.0378,VALID,54,VALID,0,
2010-05-30, 02:06:04,VALID,1000.34,VALID,0,VALID,94.1648,VALID,0,VALID,23.0556,VALID,54,VALID,0,
2010-05-30, 02:07:04,VALID,1000.29,VALID,0,VALID,94.1648,VALID,0,VALID,23.0769,VALID,54,VALID,0,
2010-05-30, 02:08:04,VALID,1000.34,VALID,0,VALID,94.18,VALID,0,VALID,23.1159,VALID,39,VALID,0.0222656,
2010-05-30, 02:09:04,VALID,1000.33,VALID,0,VALID,94.1724,VALID,0,VALID,23.1159,VALID,35,VALID,0.860937,
2010-05-30, 02:10:04,VALID,1000.32,VALID,0,VALID,94.1724,VALID,0,VALID,23.0573,VALID,29,VALID,1.17461,
2010-05-30, 02:11:04,VALID,1000.33,VALID,0,VALID,94.1343,VALID,0,VALID,22.9793,VALID,28,VALID,0.827734,
2010-05-30, 02:12:04,VALID,1000.33,VALID,0,VALID,94.1419,VALID,0,VALID,22.9403,VALID,30,VALID,0.729297,
2010-05-30, 02:13:04,VALID,1000.33,VALID,0,VALID,94.1648,VALID,0,VALID,22.9403,VALID,30,VALID,0.300391,
2010-05-30, 02:14:04,VALID,1000.31,VALID,0,VALID,94.2029,VALID,0,VALID,22.9793,VALID,30,VALID,0,
2010-05-30, 02:15:04,VALID,1000.32,VALID,0,VALID,94.1877,VALID,0,VALID,23.0378,VALID,30,VALID,0.0382813,
2010-05-30, 02:16:04,VALID,1000.29,VALID,0,VALID,94.2029,VALID,0,VALID,23.0573,VALID,30,VALID,0.0601562,
2010-05-30, 02:17:04,VALID,1000.27,VALID,0,VALID,94.2105,VALID,0,VALID,23.0556,VALID,30,VALID,0.199609,
2010-05-30, 02:18:04,VALID,1000.25,VALID,0,VALID,94.2258,VALID,0,VALID,23.0946,VALID,30,VALID,0.292188,
2010-05-30, 02:19:04,VALID,1000.19,VALID,0,VALID,94.2182,VALID,0,VALID,23.0946,VALID,30,VALID,0.203125,
2010-05-30, 02:20:04,VALID,1000.18,VALID,0,VALID,94.2182,VALID,0,VALID,23.1354,VALID,30,VALID,0.216406,
2010-05-30, 02:21:04,VALID,1000.15,VALID,0,VALID,94.2182,VALID,0,VALID,23.1744,VALID,30,VALID,0.451562,
2010-05-30, 02:22:04,VALID,1000.11,VALID,0,VALID,94.2258,VALID,0,VALID,23.1531,VALID,30,VALID,0.485547,
2010-05-30, 02:23:04,VALID,1000.12,VALID,0,VALID,94.2258,VALID,0,VALID,23.1744,VALID,30,VALID,0.516406,
2010-05-30, 02:24:04,VALID,1000.12,VALID,0,VALID,94.2258,VALID,0,VALID,23.1939,VALID,77,VALID,0.743359,
2010-05-30, 02:25:04,VALID,1000.12,VALID,0,VALID,94.2182,VALID,0,VALID,23.1744,VALID,78,VALID,0.692187,
2010-05-30, 02:26:04,VALID,1000.12,VALID,0,VALID,94.2182,VALID,0,VALID,23.1744,VALID,78,VALID,0.666406,
2010-05-30, 02:27:04,VALID,1000.13,VALID,0,VALID,94.2334,VALID,0.112286,VALID,23.1549,VALID,78,VALID,0.672656,
2010-05-30, 02:28:04,VALID,1000.16,VALID,0,VALID,94.2487,VALID,0,VALID,23.1354,VALID,78,VALID,0.626562,
2010-05-30, 02:29:04,VALID,1000.19,VALID,0,VALID,94.2105,VALID,0,VALID,23.0946,VALID,68,VALID,0.537109,
2010-05-30, 02:30:04,VALID,1000.18,VALID,0,VALID,94.2105,VALID,0,VALID,22.9581,VALID,48,VALID,0.828516,
2010-05-30, 02:31:04,VALID,1000.2,VALID,0,VALID,94.2182,VALID,0,VALID,22.9988,VALID,47,VALID,0.921875,
2010-05-30, 02:32:04,VALID,1000.19,VALID,0,VALID,94.2029,VALID,0,VALID,22.9793,VALID,47,VALID,0.988281,
2010-05-30, 02:33:04,VALID,1000.22,VALID,0,VALID,94.2258,VALID,0,VALID,22.9793,VALID,47,VALID,1.15859,
2010-05-30, 02:34:04,VALID,1000.21,VALID,0,VALID,94.2182,VALID,0,VALID,22.9988,VALID,48,VALID,1.14727,
2010-05-30, 02:35:04,VALID,1000.16,VALID,0,VALID,94.2258,VALID,0,VALID,22.9776,VALID,48,VALID,1.15352,
2010-05-30, 02:36:04,VALID,1000.16,VALID,0,VALID,94.2411,VALID,0,VALID,23.0378,VALID,48,VALID,0.907812,
2010-05-30, 02:37:04,VALID,1000.14,VALID,0,VALID,94.2334,VALID,0,VALID,23.0573,VALID,48,VALID,0.80625,
2010-05-30, 02:38:04,VALID,1000.15,VALID,0,VALID,94.2563,VALID,0,VALID,23.0573,VALID,48,VALID,0.592188,
2010-05-30, 02:39:04,VALID,1000.19,VALID,0,VALID,94.2334,VALID,0,VALID,23.0183,VALID,48,VALID,0.605859,
2010-05-30, 02:40:04,VALID,1000.21,VALID,0,VALID,94.2411,VALID,0,VALID,23.0183,VALID,57,VALID,0.803906,
2010-05-30, 02:41:04,VALID,1000.23,VALID,0,VALID,94.2182,VALID,0,VALID,23.0166,VALID,57,VALID,0.875,
2010-05-30, 02:42:04,VALID,1000.24,VALID,0,VALID,94.2258,VALID,0,VALID,22.9971,VALID,46,VALID,0.777734,
2010-05-30, 02:43:04,VALID,1000.26,VALID,0,VALID,94.2182,VALID,0,VALID,22.9208,VALID,36,VALID,1.0668,
2010-05-30, 02:44:04,VALID,1000.28,VALID,0,VALID,94.2105,VALID,0,VALID,22.8623,VALID,18,VALID,1.02461,
2010-05-30, 02:45:04,VALID,1000.26,VALID,0,VALID,94.2029,VALID,0,VALID,22.802,VALID,17,VALID,0.875,
2010-05-30, 02:46:04,VALID,1000.28,VALID,0,VALID,94.1953,VALID,0,VALID,22.7842,VALID,17,VALID,0.716797,
2010-05-30, 02:47:04,VALID,1000.29,VALID,0,VALID,94.2334,VALID,0,VALID,22.7842,VALID,17,VALID,0.757031,
2010-05-30, 02:48:04,VALID,1000.3,VALID,0,VALID,94.2029,VALID,0,VALID,22.8232,VALID,17,VALID,0.324609,
2010-05-30, 02:49:04,VALID,1000.3,VALID,0,VALID,94.2182,VALID,0,VALID,22.8427,VALID,17,VALID,0.295312,
2010-05-30, 02:50:04,VALID,1000.32,VALID,0,VALID,94.2487,VALID,0,VALID,22.8818,VALID,17,VALID,0.642969,
2010-05-30, 02:51:04,VALID,1000.33,VALID,0,VALID,94.2258,VALID,0,VALID,22.9208,VALID,17,VALID,0.792969,
2010-05-30, 02:52:04,VALID,1000.37,VALID,0,VALID,94.264,VALID,0,VALID,22.9385,VALID,17,VALID,0.870313,
2010-05-30, 02:53:04,VALID,1000.35,VALID,0,VALID,94.2487,VALID,0,VALID,22.9793,VALID,16,VALID,0.825,
2010-05-30, 02:54:04,VALID,1000.35,VALID,0,VALID,94.2258,VALID,0,VALID,22.9988,VALID,13,VALID,0.6875,
2010-05-30, 02:55:04,VALID,1000.33,VALID,0,VALID,94.2411,VALID,0,VALID,22.9988,VALID,13,VALID,0.751953,
2010-05-30, 02:56:04,VALID,1000.32,VALID,0,VALID,94.2716,VALID,0,VALID,22.9988,VALID,13,VALID,0.869531,
2010-05-30, 02:57:04,VALID,1000.36,VALID,0,VALID,94.2334,VALID,0,VALID,23.0166,VALID,13,VALID,0.869141,
2010-05-30, 02:58:04,VALID,1000.35,VALID,0,VALID,94.2487,VALID,0,VALID,23.0378,VALID,13,VALID,0.714063,
2010-05-30, 02:59:04,VALID,1000.33,VALID,0,VALID,94.2411,VALID,0,VALID,22.9988,VALID,13,VALID,0.875391,
2010-05-30, 03:00:04,VALID,1000.36,VALID,0,VALID,94.2716,VALID,0,VALID,22.9793,VALID,16,VALID,1.10273,
2010-05-30, 03:01:04,VALID,1000.39,VALID,0,VALID,94.2411,VALID,0,VALID,22.9776,VALID,31,VALID,1.17852,
2010-05-30, 03:02:04,VALID,1000.37,VALID,0,VALID,94.2334,VALID,0,VALID,22.9598,VALID,34,VALID,1.02188,
2010-05-30, 03:03:04,VALID,1000.36,VALID,0,VALID,94.2182,VALID,0,VALID,22.9013,VALID,30,VALID,0.809766,
2010-05-30, 03:04:04,VALID,1000.37,VALID,0,VALID,94.2029,VALID,0,VALID,22.8623,VALID,20,VALID,0.660937,
2010-05-30, 03:05:04,VALID,1000.39,VALID,0,VALID,94.2258,VALID,0,VALID,22.8232,VALID,11,VALID,0.788672,
2010-05-30, 03:06:04,VALID,1000.35,VALID,0,VALID,94.2258,VALID,0,VALID,22.8623,VALID,11,VALID,0.753906,
2010-05-30, 03:07:04,VALID,1000.34,VALID,0,VALID,94.2258,VALID,0,VALID,22.8623,VALID,11,VALID,0.683984,
2010-05-30, 03:08:04,VALID,1000.36,VALID,0,VALID,94.2258,VALID,0,VALID,22.8232,VALID,14,VALID,0.850781,
2010-05-30, 03:09:04,VALID,1000.32,VALID,0,VALID,94.2487,VALID,0,VALID,22.8232,VALID,32,VALID,1.42734,
2010-05-30, 03:10:04,VALID,1000.29,VALID,0,VALID,94.2334,VALID,0,VALID,22.8623,VALID,37,VALID,1.23242,
2010-05-30, 03:11:04,VALID,1000.31,VALID,0,VALID,94.2563,VALID,0,VALID,22.8605,VALID,37,VALID,1.29219,
2010-05-30, 03:12:04,VALID,1000.33,VALID,0,VALID,94.2487,VALID,0,VALID,22.9013,VALID,35,VALID,1.29805,
2010-05-30, 03:13:04,VALID,1000.34,VALID,0,VALID,94.2411,VALID,0,VALID,22.9013,VALID,39,VALID,1.04219,
2010-05-30, 03:14:04,VALID,1000.37,VALID,0,VALID,94.2411,VALID,0,VALID,22.9013,VALID,34,VALID,1.05781,
2010-05-30, 03:15:04,VALID,1000.38,VALID,0,VALID,94.2258,VALID,0,VALID,22.8818,VALID,47,VALID,0.844141,
2010-05-30, 03:16:04,VALID,1000.42,VALID,0,VALID,94.2258,VALID,0,VALID,22.8623,VALID,49,VALID,0.602734,
2010-05-30, 03:17:04,VALID,1000.48,VALID,0,VALID,94.2258,VALID,0,VALID,22.8427,VALID,77,VALID,0.535156,
2010-05-30, 03:18:04,VALID,1000.49,VALID,0,VALID,94.2334,VALID,0,VALID,22.8623,VALID,151,VALID,0.767187,
2010-05-30, 03:19:04,VALID,1000.55,VALID,0,VALID,94.2487,VALID,0,VALID,22.9013,VALID,160,VALID,1.17305,
2010-05-30, 03:20:04,VALID,1000.55,VALID,0,VALID,94.2182,VALID,0,VALID,22.9403,VALID,164,VALID,1.14648,
2010-05-30, 03:21:04,VALID,1000.58,VALID,0,VALID,94.2487,VALID,0,VALID,22.9403,VALID,164,VALID,0.766797,
2010-05-30, 03:22:04,VALID,1000.59,VALID,0,VALID,94.2182,VALID,0,VALID,22.9598,VALID,164,VALID,0.409766,
2010-05-30, 03:23:04,VALID,1000.61,VALID,0,VALID,94.2487,VALID,0,VALID,22.9615,VALID,164,VALID,0.255469,
2010-05-30, 03:24:04,VALID,1000.63,VALID,0,VALID,94.2411,VALID,0,VALID,22.9598,VALID,164,VALID,0.550781,
2010-05-30, 03:25:04,VALID,1000.6,VALID,0,VALID,94.2487,VALID,0,VALID,22.9403,VALID,164,VALID,0.919922,
2010-05-30, 03:26:04,VALID,1000.61,VALID,0,VALID,94.2411,VALID,0,VALID,22.9793,VALID,164,VALID,0.887109,
2010-05-30, 03:27:04,VALID,1000.54,VALID,0,VALID,94.2563,VALID,0,VALID,23.0378,VALID,167,VALID,0.96875,
2010-05-30, 03:28:04,VALID,1000.56,VALID,0,VALID,94.2411,VALID,0,VALID,23.0964,VALID,177,VALID,1.20664,
2010-05-30, 03:29:04,VALID,1000.52,VALID,0,VALID,94.2563,VALID,0,VALID,23.1354,VALID,171,VALID,1.03867,
2010-05-30, 03:30:04,VALID,1000.53,VALID,0,VALID,94.2258,VALID,0,VALID,23.1549,VALID,170,VALID,1.14023,
2010-05-30, 03:31:04,VALID,1000.55,VALID,0,VALID,94.2258,VALID,0,VALID,23.1549,VALID,173,VALID,1.38984,
2010-05-30, 03:32:04,VALID,1000.52,VALID,0,VALID,94.2411,VALID,0,VALID,23.1939,VALID,181,VALID,1.45391,
2010-05-30, 03:33:04,VALID,1000.52,VALID,0,VALID,94.2334,VALID,0,VALID,23.1939,VALID,180,VALID,1.20508,
2010-05-30, 03:34:04,VALID,1000.52,VALID,0,VALID,94.2334,VALID,0,VALID,23.2117,VALID,180,VALID,1.13672,
2010-05-30, 03:35:04,VALID,1000.53,VALID,0,VALID,94.2182,VALID,0,VALID,23.2312,VALID,181,VALID,1.19258,
2010-05-30, 03:36:04,VALID,1000.52,VALID,0,VALID,94.1953,VALID,0,VALID,23.2524,VALID,178,VALID,0.914453,
2010-05-30, 03:37:04,VALID,1000.5,VALID,0,VALID,94.1953,VALID,0,VALID,23.2524,VALID,172,VALID,0.935156,
2010-05-30, 03:38:04,VALID,1000.47,VALID,0,VALID,94.18,VALID,0,VALID,23.2329,VALID,169,VALID,0.810938,
2010-05-30, 03:39:04,VALID,1000.44,VALID,0,VALID,94.1724,VALID,0,VALID,23.2134,VALID,154,VALID,0.758594,
2010-05-30, 03:40:04,VALID,1000.42,VALID,0,VALID,94.1571,VALID,0,VALID,23.1744,VALID,143,VALID,0.682422,
2010-05-30, 03:41:04,VALID,1000.42,VALID,0,VALID,94.1419,VALID,0,VALID,23.1159,VALID,136,VALID,0.678906,
2010-05-30, 03:42:04,VALID,1000.4,VALID,0,VALID,94.1037,VALID,0,VALID,23.0769,VALID,132,VALID,0.535547,
2010-05-30, 03:43:04,VALID,1000.36,VALID,0,VALID,94.0808,VALID,0,VALID,23.0378,VALID,132,VALID,0.269531,
2010-05-30, 03:44:04,VALID,1000.35,VALID,0,VALID,94.0961,VALID,0,VALID,23.0183,VALID,123,VALID,0.476563,
2010-05-30, 03:45:04,VALID,1000.35,VALID,0,VALID,94.0656,VALID,0,VALID,22.9988,VALID,107,VALID,0.483984,
2010-05-30, 03:46:04,VALID,1000.37,VALID,0,VALID,94.058,VALID,0,VALID,22.9793,VALID,100,VALID,0.0128906,
2010-05-30, 03:47:04,VALID,1000.33,VALID,0,VALID,94.0808,VALID,0,VALID,22.9988,VALID,98,VALID,0.730469,
2010-05-30, 03:48:04,VALID,1000.36,VALID,0,VALID,94.0885,VALID,0,VALID,22.9988,VALID,99,VALID,1.13008,
2010-05-30, 03:49:04,VALID,1000.35,VALID,0,VALID,94.0808,VALID,0,VALID,23.0183,VALID,94,VALID,1.22852,